Overview Statistics Trail Chart Weather Telemetry Raw packets
 

This is the latest recevied weather packets stored in our database for station/object W0AKY-13. If no packets are shown the sender has not sent any weather packets the latest 10 day(s).

<< 20 21 22 23 24 25 26 >>
Time Temp. Humidity Pressure Rain* Wind** Luminosity Snow
1788478371 33.89° C 55% 1010.7 hPa 0 mm - 27 W/m² -
1788478070 33.89° C 55% 1010.5 hPa 0 mm - 29 W/m² -
1788477767 33.89° C 56% 1010.6 hPa 0 mm - 30 W/m² -
1788477466 34.44° C 55% 1010.2 hPa 0 mm - 33 W/m² -
1788477161 34.44° C 53% 1010.6 hPa 0 mm - 34 W/m² -
1788476857 34.44° C 53% 1010.4 hPa 0 mm - 40 W/m² -
1788476551 35.56° C 53% 1010.5 hPa 0 mm - 76 W/m² -
1788476248 35.56° C 51% 1010.4 hPa 0 mm - 75 W/m² -
1788475944 35.56° C 51% 1010.5 hPa 0 mm - 141 W/m² -
1788475640 35.56° C 50% 1010.4 hPa 0 mm - 152 W/m² -
1788475336 36.11° C 51% 1010.4 hPa 0 mm - 163 W/m² -
1788475036 36.67° C 50% 1010.5 hPa 0 mm - 174 W/m² -
1788474735 36.67° C 49% 1010.5 hPa 0 mm - 186 W/m² -
1788474429 36.67° C 51% 1010.3 hPa 0 mm - 196 W/m² -
1788474129 36.67° C 50% 1010.4 hPa 0 mm - 207 W/m² -
1788473823 36.67° C 50% 1010.3 hPa 0 mm - 218 W/m² -
1788473522 36.67° C 49% 1010.4 hPa 0 mm - 229 W/m² -
1788473221 36.67° C 48% 1010.5 hPa 0 mm - 240 W/m² -
1788472915 36.67° C 50% 1010.5 hPa 0 mm - 251 W/m² -
1788472615 36.67° C 52% 1010.5 hPa 0 mm - 261 W/m² -
1788472310 36.67° C 49% 1010.6 hPa 0 mm - 274 W/m² -
1788472008 36.67° C 51% 1010.6 hPa 0 mm - 286 W/m² -
1788471704 37.22° C 51% 1010.6 hPa 0 mm - 295 W/m² -
1788471399 36.67° C 50% 1010.5 hPa 0 mm - 307 W/m² -
1788471095 36.67° C 49% 1010.6 hPa 0 mm - 320 W/m² -

* Rain latest hour (hover to see other rain measurements)
** Current wind speed in m/s (hover to see current wind gust speed)